DateTimeUTC,F1_A11,F1_S11,BsB_S11,BsG_S11,BsR_S11,BbsB_S11,BbsG_S11,BbsR_S11,BaB_A11,BaG_A11,BaR_A11,Tu_S11,T_S11,Uu_S11,U_S11,P_S11,T1_A11
2021-02-15T14:00:00Z,00000200,21000000,,,,,,,0000.12,-000.01,0000.10,17.1,23.6,,00.0,0640.0,31.0
2021-02-15T14:01:00Z,00000200,21000000,,,,,,,0000.13,0000.16,-000.17,17.1,23.6,,00.0,0640.0,31.0
2021-02-15T14:02:00Z,00000200,21000000,,,,,,,0000.06,0000.23,0000.21,17.0,23.6,,00.0,0640.0,31.0
2021-02-15T14:03:00Z,00000200,61000000,,,,,,,0000.32,0000.06,0000.33,17.0,23.6,,00.0,0640.0,31.0
2021-02-15T14:04:00Z,00000200,41000000,0000.64,0001.01,0000.25,0000.36,0000.17,0000.07,0000.67,0000.46,0000.27,17.1,23.4,00.4,00.3,0641.0,31.0
2021-02-15T14:05:00Z,00000200,01000000,0000.75,0000.46,0000.03,0000.17,0000.26,-000.04,0000.18,0000.07,0000.21,17.2,23.4,00.3,00.2,0640.9,31.0
2021-02-15T14:06:00Z,00000200,01000000,0001.29,0000.49,0000.72,-000.10,0000.16,0000.09,-000.07,0000.71,0000.35,17.2,23.4,00.4,00.3,0641.0,31.0
2021-02-15T14:07:00Z,00000200,01000000,0001.25,0000.04,0000.54,0000.56,0000.26,-000.22,0000.29,-000.03,-000.06,17.2,23.3,00.4,00.3,0640.9,31.0
2021-02-15T14:08:00Z,00000200,01000000,0000.42,0000.77,0000.65,0000.66,0000.03,0000.01,0000.44,0000.10,0000.47,17.2,23.3,00.5,00.4,0640.8,31.0
2021-02-15T14:09:00Z,00000200,01000000,0000.63,0000.48,0000.38,-000.18,-000.05,-000.30,0000.29,0000.25,0000.16,17.2,23.3,00.5,00.3,0640.7,31.0
2021-02-15T14:10:00Z,00000200,01000000,0000.81,0000.62,0000.58,0000.46,0000.04,-000.10,0000.31,0000.34,0000.24,17.2,23.3,00.5,00.4,0640.6,31.0
2021-02-15T14:11:00Z,00000200,01000000,0000.59,0000.41,0000.37,0000.04,-000.14,0000.32,0000.24,0000.28,0000.07,17.1,23.3,00.6,00.4,0640.7,31.0
2021-02-15T14:12:00Z,00000200,01000000,0000.83,0000.29,0000.20,0000.31,0000.16,-000.07,0000.56,0000.48,0000.59,17.1,23.3,00.5,00.4,0640.7,31.0
2021-02-15T14:13:00Z,00000200,01000000,0000.90,0000.60,0000.21,0000.21,-000.02,-000.31,0000.10,0000.46,-000.30,17.1,23.3,00.6,00.4,0640.6,31.0
2021-02-15T14:14:00Z,00000200,01000000,0000.79,0000.62,0000.33,-000.02,0000.03,0000.11,0000.38,0000.03,0000.35,17.1,23.2,00.6,00.4,0640.6,31.0
2021-02-15T14:15:00Z,00000200,01000000,0001.12,0000.68,0000.11,0000.61,0000.21,-000.12,0000.15,0000.17,0000.03,17.1,23.2,00.6,00.4,0640.7,31.0
2021-02-15T14:16:00Z,00000200,01000000,0001.05,0000.58,0000.51,0000.45,0000.18,-000.02,0000.35,-000.08,0000.51,17.1,23.2,00.6,00.4,0640.6,31.0
2021-02-15T14:17:00Z,00000200,01000000,0001.81,0000.71,0000.12,0000.54,-000.08,0000.04,0000.06,0000.31,0000.01,17.1,23.2,00.6,00.4,0640.6,31.0
2021-02-15T14:18:00Z,00000200,01000000,0001.43,0000.70,0000.24,0000.09,0000.12,0000.27,0000.32,0000.22,0000.13,17.1,23.2,00.7,00.5,0640.5,31.0
2021-02-15T14:19:00Z,00000200,01000000,0000.61,0000.61,0000.48,0000.50,0000.25,0000.23,0000.40,0000.49,0000.39,17.1,23.2,00.7,00.5,0640.4,31.0
2021-02-15T14:20:00Z,00000200,01000000,0001.22,0000.70,0000.54,-000.11,-000.13,0000.42,0000.12,0000.10,0000.38,17.1,23.2,00.6,00.4,0640.4,31.0
2021-02-15T14:21:00Z,00000200,01000000,0000.20,0000.43,0000.75,0000.15,0000.10,0000.16,0000.24,0000.51,-000.27,17.1,23.2,00.6,00.4,0640.4,31.0
2021-02-15T14:22:00Z,00000200,01000000,0000.67,0000.18,0000.47,0000.52,-000.06,-000.16,0000.15,-000.12,0000.25,17.1,23.2,00.6,00.4,0640.5,31.0
2021-02-15T14:23:00Z,00000200,01000000,0001.00,0000.68,0000.37,0000.11,0000.13,0000.30,0000.26,0000.33,0000.05,17.1,23.2,00.6,00.4,0640.4,31.0
2021-02-15T14:24:00Z,00000200,01000000,0000.57,0000.75,0000.36,-000.13,0000.06,0000.02,0000.15,0000.24,0000.38,17.0,23.2,00.7,00.5,0640.5,31.0
2021-02-15T14:25:00Z,00000200,01000000,0000.79,0000.30,0000.32,0000.66,-000.01,-000.04,0000.44,0000.01,0000.16,17.0,23.2,00.7,00.5,0640.4,31.0
2021-02-15T14:26:00Z,00000200,01000000,0000.45,0000.68,0000.22,0000.14,0000.17,0000.17,-000.07,0000.25,0000.30,17.0,23.1,00.6,00.4,0640.4,31.0
2021-02-15T14:27:00Z,00000200,01000000,0000.48,0000.35,0000.43,0000.29,-000.06,0000.04,0000.53,0000.21,0000.27,17.0,23.1,00.6,00.4,0640.6,31.0
2021-02-15T14:28:00Z,00000200,01000000,0000.78,0000.59,0000.50,0000.79,0000.16,0000.03,0000.08,0000.35,-000.03,17.0,23.1,00.7,00.5,0640.4,31.0
2021-02-15T14:29:00Z,00000200,01000000,0000.63,0000.23,0000.41,0000.89,0000.14,0000.41,0000.12,-000.15,0000.01,17.0,23.1,00.6,00.4,0640.3,31.0
2021-02-15T14:30:00Z,00000200,01000000,0000.98,0000.52,0000.46,0000.29,0000.11,0000.28,0000.35,0000.51,-000.06,16.9,23.1,00.7,00.5,0640.3,31.0
2021-02-15T14:31:00Z,00000200,01000000,0000.88,0000.71,0000.47,0000.12,-000.01,-000.11,-000.08,-000.24,0000.36,17.0,23.1,00.6,00.4,0640.3,31.0
2021-02-15T14:32:00Z,00000200,01000000,0000.95,0000.47,0000.38,-000.21,0000.04,0000.11,0000.56,0000.38,0000.18,16.9,23.1,00.6,00.4,0640.4,31.0
2021-02-15T14:33:00Z,00000200,01000000,0000.74,0000.53,0000.18,0000.15,0000.06,-000.00,0000.25,0000.17,0000.09,16.9,23.1,00.8,00.5,0640.4,31.0
2021-02-15T14:34:00Z,00000200,01000000,0000.35,0000.33,0000.35,0000.14,0000.08,-000.02,-000.07,0000.37,0000.45,16.9,23.0,00.7,00.4,0640.3,31.0
2021-02-15T14:35:00Z,00000200,01000000,0000.91,0000.98,0000.76,0000.38,0000.09,0000.23,0000.39,0000.46,-000.06,16.9,23.0,00.7,00.4,0640.3,31.0
2021-02-15T14:36:00Z,00000200,01000000,0000.91,0000.66,0000.55,0000.81,-000.12,-000.11,0000.60,-000.02,0000.24,17.0,23.0,00.7,00.5,0640.2,31.0
2021-02-15T14:37:00Z,00000200,01000000,0000.09,0000.38,0000.35,0000.30,0000.07,0000.07,0000.37,0000.70,0000.34,17.1,23.1,00.8,00.5,0640.3,31.0
2021-02-15T14:38:00Z,00000200,01000000,0000.34,0000.68,0000.58,0000.55,-000.06,0000.20,0000.24,0000.05,0000.12,17.2,23.1,00.7,00.5,0640.3,31.0
2021-02-15T14:39:00Z,00000200,01000000,0000.77,0000.47,0000.31,0000.46,0000.19,0000.20,-000.18,-000.06,0000.05,17.3,23.2,00.8,00.5,0640.2,31.1
2021-02-15T14:40:00Z,00000200,01000000,0000.78,0000.50,0000.35,-000.08,0000.22,-000.09,0000.61,0000.41,0000.25,17.4,23.2,00.7,00.5,0640.2,31.0
2021-02-15T14:41:00Z,00000200,01000000,0000.58,0000.44,0000.25,0000.44,0000.09,-000.12,-000.34,-000.11,0000.02,17.4,23.2,00.7,00.5,0640.2,31.0
2021-02-15T14:42:00Z,00000200,01000000,0000.51,0000.60,0000.44,-000.22,-000.08,0000.06,0000.39,0000.46,0000.19,17.3,23.2,00.7,00.5,0640.1,31.0
2021-02-15T14:43:00Z,00000200,01000000,0000.74,0000.41,0000.45,0000.25,-000.07,-000.26,0000.40,0000.25,-000.09,17.3,23.2,00.7,00.5,0640.1,31.0
2021-02-15T14:44:00Z,00000200,01000000,0000.70,0000.41,-000.00,0000.19,0000.19,-000.01,0000.03,-000.25,0000.32,17.2,23.2,00.8,00.6,0640.0,31.0
2021-02-15T14:45:00Z,00000200,01000000,0000.75,0000.41,0000.56,0000.15,0000.10,0000.25,0000.13,0000.41,0000.53,17.2,23.2,00.8,00.5,0640.1,31.0
2021-02-15T14:46:00Z,00000200,01000000,0000.56,0000.50,0000.62,0000.12,0000.14,0000.06,0000.29,0000.52,-000.39,17.2,23.2,00.8,00.6,0640.0,31.0
2021-02-15T14:47:00Z,00000200,01000000,0001.21,0000.47,0000.37,0000.22,0000.14,-000.22,0000.13,0000.02,0000.23,17.2,23.2,00.8,00.5,0639.9,31.0
2021-02-15T14:48:00Z,00000200,01000000,0000.96,0000.65,0000.55,0000.04,0000.15,0000.12,0000.17,0000.12,0000.56,17.2,23.2,00.8,00.6,0640.1,31.0
2021-02-15T14:49:00Z,00000200,01000000,0000.25,0000.62,0000.61,0000.52,0000.15,0000.42,0000.45,0000.30,-000.02,17.2,23.2,00.9,00.6,0640.0,31.0
2021-02-15T14:50:00Z,00000200,01000000,0000.48,0000.32,0000.31,0000.03,0000.19,0000.04,0000.05,0000.02,0000.10,17.2,23.2,00.9,00.6,0639.9,31.0
2021-02-15T14:51:00Z,00000200,01000000,-000.76,0000.44,0000.45,0000.03,0000.06,0000.34,0000.21,0000.40,0000.07,17.2,23.2,00.9,00.7,0639.9,31.0
2021-02-15T14:52:00Z,00000200,01000000,0000.74,0000.25,0000.79,0000.08,-000.01,0000.44,0000.65,0000.21,0000.24,17.3,23.2,00.9,00.6,0639.9,31.0
2021-02-15T14:53:00Z,00000200,01000000,0000.66,0000.49,0000.32,0000.21,0000.06,-000.03,0000.18,0000.15,0000.50,17.4,23.3,00.8,00.6,0639.8,31.0
2021-02-15T14:54:00Z,00000200,01000000,0000.96,0000.17,0000.42,0000.19,0000.18,0000.18,-000.23,0000.21,0000.09,17.5,23.4,00.8,00.6,0639.9,31.1
2021-02-15T14:55:00Z,00000200,01000000,-000.28,0000.54,0000.35,0000.26,-000.11,0000.08,0000.30,0000.25,0000.14,17.6,23.4,00.8,00.6,0639.8,31.1
2021-02-15T14:56:00Z,00000200,01000000,0000.29,0000.34,0000.38,0000.12,-000.03,0000.08,0000.60,-000.05,-000.02,17.7,23.5,00.7,00.5,0639.9,31.1
2021-02-15T14:57:00Z,00000200,41000000,,,,,,,-000.24,0000.25,0000.13,17.8,23.6,00.9,00.6,0640.0,31.1
2021-02-15T14:58:00Z,00000200,61000000,,,,,,,-000.11,0000.17,-000.18,17.8,23.7,00.6,00.4,0639.0,31.1
2021-02-15T14:59:00Z,00000200,21000000,,,,,,,0000.02,-000.02,0000.31,17.8,23.8,00.6,00.4,0638.9,31.1
